Hourly Data

Hourly Data Report for March 14, 2012

All times are specified in Local Standard Time (LST). Add 1 hour to adjust for Daylight Saving Time where and when it is observed.

Metadata including Station Name, Province, Latitude, Longitude, Elevation, Climate ID, WMO ID, TC ID
CHARLOTTETOWN A
PRINCE EDWARD ISLAND
Latitude: 46°17'19.020" N Longitude: 63°07'43.070" W Elevation: 48.80 m
Climate ID: 8300300 WMO ID: 71706 TC ID: YYG
Hourly Data Report for March 14, 2012
Temp Definition
°C

Dew Point Temp Definition
°C

Rel Hum Definition
%

Wind Dir Definition
10's deg
Wind Spd Definition
km/h

Visibility Definition
km

Stn Press Definition
kPa

Hmdx Definition

Wind Chill Definition

Weather Definition

TIME
00:00 -4.1 -6.6 83 6 15 3.2 101.86 -9 Snow
01:00 -3.8 -6.2 83 8 13 16.1 101.86 -9 Snow
02:00 -3.2 -5.7 83 10 20 19.3 101.87 -9 Snow
03:00 -3.4 -6.0 82 9 20 24.1 101.86 -10 Cloudy
04:00 -3.4 -6.2 81 8 15 24.1 101.91 -9 Cloudy
05:00 -3.5 -6.3 81 8 17 19.3 101.90 -9 Snow
06:00 -3.6 -6.6 80 7 17 24.1 101.99 -9 Snow
07:00 -3.9 -6.5 82 7 28 16.1 101.98 -11 Snow
08:00 -3.3 -6.5 78 8 26 24.1 102.01 -10 Cloudy
09:00 -2.8 -6.0 79 8 17 24.1 102.10 -8 Cloudy
10:00 -2.5 -5.8 78 8 22 24.1 102.06 -9 Cloudy
11:00 -1.8 -5.6 75 8 13 24.1 102.18 -6 Cloudy
12:00 -1.2 -5.0 75 7 13 24.1 102.13 -5 Cloudy
13:00 -1.0 -5.3 73 8 22 24.1 102.11 -7 Cloudy
14:00 -0.7 -5.0 73 9 20 24.1 102.12 -6 Cloudy
15:00 -0.9 -4.6 76 7 17 12.9 102.10 -6 Snow
16:00 -1.6 -4.2 82 6 19 4.8 102.08 -7 Snow
17:00 -1.7 -4.2 83 8 26 4.8 102.09 -8 Snow
18:00 -1.5 -3.9 84 8 19 4.8 102.10 -7 Snow
19:00 -2.1 -4.7 82 8 32 3.2 102.10 -9 Snow
20:00 -2.2 -4.6 84 7 19 3.2 102.16 -8 Snow
21:00 -2.5 -5.0 83 7 28 3.2 102.16 -10 Snow
22:00 -2.5 -5.1 82 6 26 2.4 102.16 -9 Snow
23:00 -2.6 -5.4 81 6 26 3.2 102.15 -9 Snow

Notes on Data Quality.

Legend
  • M = Missing
  • E = Estimated
  • NA = Not Available
  • ‡ = Partner data that is not subject to review by the National Climate Archives